Location: Le Rocchette
(44.3500°N, 7.8333°E)
Time: 04:54:34
(UTC+00:00)

Cosmos 2322 - Pass Details

Date: 17 November 2019
Orbit: 841 x 854 km, 71.0° (Epoch: 12 December)

Event Time Altitude Azimuth Distance (km) Brightness Sun altitude
Rises 05:25:36 0° 337° (NNW) 3,424 6.5 -11.0°
Reaches altitude 10° 05:28:07 10° 341° (NNW) 2,483 5.8 -10.6°
Maximum altitude 05:33:45 60° 61° (ENE) 963 4.3 -9.6°
Drops below altitude 10° 05:39:20 10° 142° (SE) 2,459 7.1 -8.7°
Sets 05:41:48 0° 145° (SE) 3,389 7.8 -8.2°
